Location: Rowland
(34.5359°N, 79.2929°W)
Time: 20:11:37
(UTC+00:00)

Vanguard 2 - Pass Details

Date: 10 October 2022
Orbit: 553 x 2933 km, 32.9° (Epoch: 06 December)

Event Time Altitude Azimuth Distance (km) Brightness Sun altitude
Rises 23:07:54 0° 279° (W) 5,925 14.0 -4.7°
Reaches altitude 10° 23:12:17 10° 269° (W) 5,204 13.7 -5.6°
Maximum altitude 23:24:49 29° 218° (SW) 4,322 11.8 -8.2°
Drops below altitude 10° 23:38:33 10° 167° (SSE) 5,655 11.8 -11.0°
Sets 23:43:43 0° 157° (SSE) 6,499 12.0 -12.1°
